When you browse on this site, cookies collect data to enhance your experience and personalize the content and advertising you see.
Visit our Privacy Policy to learn more. By continuing to use the site, you agree to this use of cookies and data.
  • In Lithuania
  • List of Countries
  • For 7 days
  • Water Temperature
  • Satellite Maps
  • Weather Map
  • Weather Widgets
  • user-avatar
    Login

    Hourly Weather Konstantyna

    Today, 19 May, Sunday

    Time Temperature Precipitation Wind Pressure Humidity
    00:00 +11°C° 0 mm 0 mps 704 mmHg 85%
    01:00 +11°C° 0 mm 0 mps 704 mmHg 84%
    02:00 +11°C° 0 mm 0 mps 704 mmHg 83%
    03:00 +11°C° 0 mm 0 mps 704 mmHg 82%
    04:00 +12°C° 0 mm 0 mps 704 mmHg 78%
    05:00 +12°C° 0 mm 0 mps 704 mmHg 75%
    06:00 +14°C° 0 mm 1 mps 705 mmHg 70%
    07:00 +15°C° 0 mm 1 mps 705 mmHg 64%
    08:00 +17°C° 0 mm 2 mps 705 mmHg 58%
    09:00 +18°C° 0 mm 2 mps 705 mmHg 53%
    10:00 +19°C° 0 mm 2 mps 706 mmHg 49%
    11:00 +19°C° 0 mm 3 mps 706 mmHg 46%
    12:00 +20°C° 0 mm 3 mps 706 mmHg 42%
    13:00 +20°C° 0.2 mm 3 mps 706 mmHg 43%
    14:00 +19°C° 0.2 mm 3 mps 706 mmHg 45%
    15:00 +19°C° 0.2 mm 3 mps 706 mmHg 46%
    16:00 +18°C° 0.2 mm 3 mps 706 mmHg 53%
    17:00 +17°C° 0.2 mm 3 mps 706 mmHg 59%
    18:00 +16°C° 0.2 mm 3 mps 706 mmHg 66%
    19:00 +15°C° 0.1 mm 2 mps 706 mmHg 72%
    20:00 +13°C° 0.1 mm 2 mps 706 mmHg 78%
    21:00 +12°C° 0.1 mm 1 mps 706 mmHg 84%
    22:00 +12°C° 0.1 mm 1 mps 706 mmHg 82%
    23:00 +13°C° 0.1 mm 1 mps 706 mmHg 79%

    Tomorrow, 20 May, Monday

    Time Temperature Precipitation Wind Pressure Humidity
    00:00 +13°C° 0.1 mm 1 mps 706 mmHg 77%
    01:00 +12°C° 0 mm 1 mps 706 mmHg 78%
    02:00 +10°C° 0 mm 0 mps 706 mmHg 80%
    03:00 +9°C° 0 mm 0 mps 705 mmHg 82%
    04:00 +10°C° 0 mm 0 mps 706 mmHg 75%
    05:00 +12°C° 0 mm 0 mps 706 mmHg 69%
    06:00 +13°C° 0 mm 0 mps 707 mmHg 63%
    07:00 +14°C° 0 mm 0 mps 708 mmHg 55%
    08:00 +18°C° 0 mm 1 mps 708 mmHg 47%
    09:00 +19°C° 0 mm 1 mps 709 mmHg 40%
    10:00 +21°C° 0 mm 1 mps 709 mmHg 37%
    11:00 +22°C° 0 mm 1 mps 709 mmHg 34%
    12:00 +23°C° 0 mm 1 mps 709 mmHg 31%
    13:00 +23°C° 0 mm 2 mps 709 mmHg 31%
    14:00 +22°C° 0 mm 3 mps 709 mmHg 32%
    15:00 +24°C° 0 mm 3 mps 708 mmHg 32%
    16:00 +21°C° 0 mm 3 mps 708 mmHg 40%
    17:00 +19°C° 0 mm 4 mps 708 mmHg 48%
    18:00 +17°C° 0 mm 4 mps 708 mmHg 55%
    19:00 +16°C° 0 mm 3 mps 708 mmHg 56%
    20:00 +15°C° 0 mm 2 mps 709 mmHg 58%
    21:00 +14°C° 0 mm 1 mps 709 mmHg 59%
    22:00 +14°C° 0 mm 1 mps 709 mmHg 59%
    23:00 +13°C° 0 mm 1 mps 709 mmHg 60%

    Day after tomorrow, 21 May, Tuesday

    Time Temperature Precipitation Wind Pressure Humidity
    00:00 +13°C° 0 mm 1 mps 709 mmHg 60%
    01:00 +13°C° 0 mm 1 mps 708 mmHg 60%
    02:00 +13°C° 0 mm 1 mps 708 mmHg 60%
    03:00 +12°C° 0 mm 1 mps 708 mmHg 60%
    04:00 +13°C° 0 mm 1 mps 708 mmHg 61%
    05:00 +15°C° 0 mm 2 mps 708 mmHg 61%
    06:00 +16°C° 0 mm 2 mps 708 mmHg 61%
    07:00 +19°C° 0 mm 1 mps 709 mmHg 53%
    08:00 +21°C° 0 mm 1 mps 709 mmHg 45%
    09:00 +22°C° 0 mm 0 mps 710 mmHg 38%
    10:00 +24°C° 0.1 mm 1 mps 710 mmHg 37%
    11:00 +25°C° 0.1 mm 2 mps 710 mmHg 36%
    12:00 +25°C° 0.1 mm 3 mps 710 mmHg 35%
    13:00 +22°C° 0.3 mm 4 mps 710 mmHg 46%
    14:00 +21°C° 0.3 mm 4 mps 709 mmHg 56%
    15:00 +19°C° 0.3 mm 4 mps 709 mmHg 66%
    16:00 +18°C° 0.1 mm 4 mps 709 mmHg 70%
    17:00 +17°C° 0.1 mm 3 mps 709 mmHg 75%
    18:00 +16°C° 0.1 mm 3 mps 709 mmHg 79%
    19:00 +16°C° 1.7 mm 2 mps 710 mmHg 82%
    20:00 +15°C° 1.7 mm 2 mps 710 mmHg 84%
    21:00 +15°C° 1.7 mm 1 mps 711 mmHg 87%
    22:00 +14°C° 1.7 mm 1 mps 710 mmHg 87%
    23:00 +14°C° 1.7 mm 1 mps 710 mmHg 88%

    22 May, Wednesday

    Time Temperature Precipitation Wind Pressure Humidity
    00:00 +14°C° 1.7 mm 1 mps 710 mmHg 88%
    01:00 +14°C° 0.5 mm 1 mps 710 mmHg 88%
    02:00 +13°C° 0.5 mm 1 mps 709 mmHg 89%
    03:00 +13°C° 0.5 mm 1 mps 709 mmHg 89%
    04:00 +14°C° 0 mm 1 mps 709 mmHg 85%
    05:00 +15°C° 0 mm 1 mps 709 mmHg 81%
    06:00 +15°C° 0 mm 1 mps 710 mmHg 77%
    07:00 +18°C° 0 mm 1 mps 710 mmHg 71%
    08:00 +20°C° 0 mm 1 mps 711 mmHg 64%
    09:00 +21°C° 0 mm 1 mps 711 mmHg 58%
    10:00 +22°C° 0.5 mm 1 mps 711 mmHg 56%
    11:00 +23°C° 0.5 mm 2 mps 711 mmHg 55%
    12:00 +22°C° 0.5 mm 3 mps 711 mmHg 53%
    13:00 +22°C° 0.8 mm 3 mps 711 mmHg 57%
    14:00 +22°C° 0.8 mm 4 mps 710 mmHg 60%
    15:00 +21°C° 0.8 mm 4 mps 710 mmHg 64%
    16:00 +20°C° 1.1 mm 4 mps 710 mmHg 69%
    17:00 +19°C° 1.1 mm 4 mps 710 mmHg 74%
    18:00 +18°C° 1.1 mm 3 mps 710 mmHg 79%
    19:00 +17°C° 0.2 mm 2 mps 711 mmHg 84%
    20:00 +15°C° 0.2 mm 2 mps 711 mmHg 89%
    21:00 +14°C° 0.2 mm 1 mps 711 mmHg 94%
    22:00 +14°C° 0 mm 1 mps 711 mmHg 94%
    23:00 +12°C° 0 mm 0 mps 711 mmHg 94%

    23 May, Thursday

    Time Temperature Precipitation Wind Pressure Humidity
    00:00 +12°C° 0 mm 0 mps 711 mmHg 95%
    01:00 +12°C° 0 mm 0 mps 711 mmHg 94%
    02:00 +11°C° 0 mm 0 mps 711 mmHg 93%
    03:00 +11°C° 0 mm 0 mps 710 mmHg 93%
    04:00 +12°C° 0 mm 0 mps 711 mmHg 88%
    05:00 +13°C° 0 mm 0 mps 711 mmHg 84%
    06:00 +14°C° 0 mm 0 mps 711 mmHg 80%
    07:00 +16°C° 0 mm 0 mps 712 mmHg 69%
    08:00 +19°C° 0 mm 1 mps 712 mmHg 58%
    09:00 +21°C° 0 mm 1 mps 713 mmHg 47%
    10:00 +21°C° 0 mm 2 mps 713 mmHg 43%
    11:00 +23°C° 0 mm 2 mps 713 mmHg 40%
    12:00 +24°C° 0 mm 3 mps 713 mmHg 36%
    13:00 +24°C° 0 mm 3 mps 713 mmHg 37%
    14:00 +23°C° 0 mm 4 mps 712 mmHg 38%
    15:00 +23°C° 0 mm 4 mps 712 mmHg 39%
    16:00 +22°C° 0 mm 4 mps 712 mmHg 45%
    17:00 +20°C° 0 mm 3 mps 712 mmHg 51%
    18:00 +19°C° 0 mm 2 mps 712 mmHg 57%
    19:00 +17°C° 0 mm 2 mps 712 mmHg 62%
    20:00 +16°C° 0 mm 1 mps 712 mmHg 66%
    21:00 +14°C° 0 mm 1 mps 712 mmHg 70%
    22:00 +14°C° 0 mm 1 mps 712 mmHg 69%
    23:00 +14°C° 0 mm 1 mps 712 mmHg 69%

    24 May, Friday

    Time Temperature Precipitation Wind Pressure Humidity
    00:00 +14°C° 0 mm 1 mps 711 mmHg 68%
    01:00 +13°C° 0 mm 1 mps 711 mmHg 66%
    02:00 +13°C° 0 mm 1 mps 711 mmHg 65%
    03:00 +13°C° 0 mm 1 mps 711 mmHg 63%
    04:00 +14°C° 0 mm 1 mps 711 mmHg 60%
    05:00 +16°C° 0 mm 1 mps 711 mmHg 57%
    06:00 +18°C° 0 mm 1 mps 712 mmHg 54%
    07:00 +20°C° 0 mm 1 mps 712 mmHg 47%
    08:00 +22°C° 0 mm 1 mps 713 mmHg 39%
    09:00 +24°C° 0 mm 1 mps 713 mmHg 32%
    10:00 +25°C° 0 mm 1 mps 713 mmHg 31%
    11:00 +26°C° 0 mm 2 mps 713 mmHg 29%
    12:00 +27°C° 0 mm 3 mps 713 mmHg 28%
    13:00 +27°C° 0 mm 3 mps 712 mmHg 29%
    14:00 +27°C° 0 mm 3 mps 712 mmHg 31%
    15:00 +27°C° 0 mm 3 mps 712 mmHg 32%
    16:00 +25°C° 0 mm 3 mps 711 mmHg 39%
    17:00 +24°C° 0 mm 3 mps 711 mmHg 46%
    18:00 +21°C° 0 mm 2 mps 711 mmHg 53%
    19:00 +20°C° 0 mm 2 mps 711 mmHg 57%
    20:00 +19°C° 0 mm 1 mps 711 mmHg 61%
    21:00 +16°C° 0 mm 1 mps 711 mmHg 65%
    22:00 +16°C° 0 mm 1 mps 711 mmHg 64%
    23:00 +16°C° 0 mm 1 mps 711 mmHg 62%
    Show more